Location: Baix
(44.7118°N, 4.7648°E)
Time: 10:08:07
(UTC+00:00)

Vanguard 2 Rocket - Pass Details

Date: 27 November 2020
Orbit: 554 x 3325 km, 32.9° (Epoch: 21 January)

Event Time Altitude Azimuth Distance (km) Brightness Sun altitude
Rises 08:16:46 0° 236° (WSW) 7,231 11.4 10.9°
Reaches altitude 10° 08:21:50 10° 232° (SW) 6,276 11.1 11.5°
Maximum altitude 08:40:29 49° 166° (SSE) 3,560 10.8 13.7°
Drops below altitude 10° 08:54:15 10° 98° (E) 4,758 11.4 15.2°
Sets 08:57:29 0° 93° (E) 5,436 11.5 15.6°
